Location: Chełmno
(53.3480°N, 18.4232°E)
Time: 22:54:41
(UTC+01:00)

ISS - Visible Passes

Search period start: 23 January 2019 00:00
Search period end: 02 February 2019 00:00
Orbit: 404 x 410 km, 51.6° (Epoch: 24 January)

Date Brightness Start Highest point End Pass type
(mag) Time Alt. Az. Time Alt. Az. Time Alt. Az.
23 Jan -1.1 18:40:35 10° S 18:41:05 12° S 18:41:05 12° S visible
24 Jan -1.5 17:50:23 10° SSE 17:51:49 12° SE 17:52:04 12° SE visible
24 Jan -0.6 19:24:36 10° SW 19:24:47 11° SW 19:24:47 11° SW visible
25 Jan -2.2 18:33:32 10° SW 18:35:41 26° S 18:35:41 26° S visible
26 Jan -2.1 17:42:40 10° SSW 17:45:15 21° SSE 17:46:30 17° ESE visible
26 Jan -1.2 19:18:06 10° WSW 19:19:14 19° WSW 19:19:14 19° WSW visible
27 Jan -3.2 18:26:52 10° SW 18:30:00 44° SSE 18:30:00 44° SSE visible
28 Jan -2.7 17:35:42 10° SW 17:38:44 33° SSE 17:40:43 17° E visible
28 Jan -1.8 19:11:44 10° WSW 19:13:26 27° WSW 19:13:26 27° WSW visible
29 Jan -3.6 18:20:22 10° WSW 18:23:38 58° S 18:24:07 51° SE visible
29 Jan -0.2 19:56:46 10° W 19:56:50 10° W 19:56:50 10° W visible
30 Jan -3.2 17:29:03 10° WSW 17:32:15 49° SSE 17:34:47 15° E visible
30 Jan -2.3 19:05:21 10° W 19:07:30 36° WSW 19:07:30 36° WSW visible
31 Jan -3.7 18:13:56 10° W 18:17:13 66° S 18:18:09 41° ESE visible
31 Jan -0.5 19:50:24 10° W 19:50:52 13° W 19:50:52 13° W visible
01 Feb -3.5 17:22:32 10° WSW 17:25:47 62° S 17:28:49 12° E visible
01 Feb -2.8 18:58:57 10° W 19:01:32 44° WSW 19:01:32 44° WSW visible
